Wind_Speed
43 44 43 42 42 42 43 43 43 43 43 43 43 43 44 44 44 44 45 46 46 47 47 47 47 47 47 47 48 48 48 48 49 50 50 50 50 50
43 43 43 43 43 44 44 44 44 44 43 43 44 45 45 45 45 46 46 47 47 47 48 48 48 49 49 48 49 49 49 49 50 50 51 51 51 52
44 43 44 44 45 44 44 44 44 45 45 44 45 45 45 45 46 47 47 47 48 48 49 49 50 49 50 50 50 49 49 49 50 50 51 51 52 53
44 44 44 44 44 44 44 44 44 45 45 45 45 46 46 47 47 48 47 48 48 48 49 49 50 50 50 51 51 51 50 50 51 52 52 52 52 52
44 44 44 44 44 44 44 44 45 46 46 46 46 46 47 48 48 48 47 47 48 49 50 50 50 50 51 51 51 51 50 51 52 52 52 52 53 54
44 44 44 44 44 44 45 44 45 45 45 45 45 46 47 48 48 48 48 48 49 49 50 51 51 51 51 51 51 51 51 51 52 53 53 53 54 55
44 45 44 44 43 43 43 44 44 45 45 46 46 46 47 47 48 49 49 50 50 50 51 51 51 51 51 51 51 51 51 52 53 53 54 54 55 56
45 45 45 45 44 44 43 44 45 45 45 46 46 47 47 48 48 49 50 50 50 51 51 51 51 51 51 51 51 52 52 53 54 54 54 54 54 55
46 45 45 45 45 45 45 45 46 46 46 47 47 47 47 47 48 49 49 49 49 50 50 49 49 49 50 51 52 53 53 53 53 53 54 54 55 55
45 46 45 46 46 47 47 46 46 46 47 47 46 46 47 48 48 48 48 48 48 48 50 49 49 49 50 51 51 51 52 52 52 53 53 54 54 54
46 46 46 46 46 47 47 46 46 46 46 46 46 45 46 47 47 47 47 47 47 48 48 49 49 50 50 51 50 50 51 52 52 52 52 53 52 52
45 45 45 45 45 45 45 45 45 45 45 44 45 45 45 46 47 47 47 47 47 47 48 48 48 49 49 49 49 49 50 50 50 51 51 51 51 51
43 43 43 43 43 44 44 43 43 44 44 44 44 44 45 46 46 47 47 47 48 48 47 47 47 48 48 47 48 49 49 49 49 49 49 50 50 51
43 43 43 43 43 44 43 43 43 44 44 44 44 44 45 45 46 46 46 46 46 46 46 45 46 46 46 47 47 47 48 48 48 48 49 49 49 50
44 43 43 43 43 43 44 44 44 44 44 44 45 45 45 45 45 44 44 44 45 44 44 44 45 45 45 45 46 47 47 48 49 49 49 49 49 49
44 44 44 43 43 44 44 44 44 44 44 44 45 45 44 44 43 43 43 43 43 43 44 44 44 44 45 45 46 47 47 48 48 48 48 48 48 48
44 44 44 44 44 44 43 43 43 44 44 44 44 43 43 43 43 42 42 42 42 42 42 43 44 45 44 45 46 46 47 47 47 48 48 47 47 47
44 44 44 44 44 43 43 43 43 43 43 43 43 42 42 42 43 43 43 43 43 43 43 43 44 44 45 45 45 46 45 45 45 46 47 47 46 47
44 44 44 44 43 43 43 42 42 42 42 42 41 41 42 42 42 43 43 43 43 43 43 43 43 44 44 44 44 45 44 44 44 45 45 45 44 44
42 42 42 43 43 43 43 42 42 42 42 41 41 41 42 42 42 42 42 42 43 43 43 43 43 44 43 43 42 42 43 43 43 43 43 43 42 42
41 41 42 42 42 43 43 43 42 42 42 42 41 41 41 42 41 41 42 42 42 42 42 42 43 43 42 42 41 41 41 42 41 41 40 40 40 40
40 40 41 41 41 41 42 42 42 42 42 41 41 41 40 40 40 40 40 39 39 40 40 41 41 42 41 40 40 40 40 40 41 40 39 38 37 37
39 40 40 40 40 40 40 40 40 40 40 40 40 40 40 39 39 39 39 39 38 38 39 39 39 39 40 40 39 39 39 39 39 39 38 37 36 35
Wind_Direction
262 264 265 266 267 267 266 267 268 268 269 269 270 270 271 271 272 272 271 271 270 271 271 272 273 273 272 272 272 272 272 274 275 275 275 275 275 276
262 264 265 266 268 268 268 268 269 269 269 269 270 271 271 271 272 272 273 272 271 272 272 272 273 273 273 274 274 273 273 275 275 275 275 275 275 276
262 264 265 267 268 269 269 269 269 269 269 269 270 270 271 272 272 272 273 272 273 274 274 274 274 274 274 275 275 274 275 275 276 276 276 277 276 276
262 263 264 266 267 268 269 270 269 270 270 270 270 270 271 272 272 272 272 273 273 274 274 275 275 274 275 275 275 274 275 276 277 277 277 277 277 276
262 262 264 266 267 267 268 269 269 270 271 270 270 271 272 272 272 272 272 273 274 274 275 275 275 275 275 275 274 274 275 276 277 278 279 278 277 277
262 263 264 266 266 267 268 269 270 271 271 271 271 272 272 272 272 272 272 272 274 275 276 275 275 275 275 275 274 274 275 277 278 279 280 279 279 280
262 263 264 265 266 267 268 270 271 272 271 271 271 272 273 273 273 273 273 273 273 275 275 275 275 275 275 275 274 275 276 278 279 280 280 280 281 282
261 263 263 265 265 267 268 270 271 271 271 271 272 273 273 273 272 273 274 273 274 274 274 274 275 275 275 274 274 276 277 278 279 280 281 282 282 282
262 263 264 265 265 266 268 269 271 271 271 272 273 274 274 273 273 273 274 274 274 273 273 274 275 277 277 275 275 276 277 277 279 280 282 282 283 283
262 263 264 265 266 267 267 270 271 271 272 273 274 274 274 273 273 274 274 274 274 274 274 275 275 276 276 276 276 277 278 278 280 281 283 283 283 283
263 264 264 266 267 268 269 270 270 271 272 273 274 275 275 274 274 275 276 276 277 276 276 277 276 275 276 276 276 277 279 279 280 282 283 284 284 284
263 264 265 266 267 269 269 269 270 271 273 274 275 276 277 276 275 276 277 278 278 277 277 277 276 275 275 275 276 277 279 280 282 283 284 284 284 284
263 263 265 267 268 269 269 269 270 272 273 274 276 277 278 277 277 277 278 279 278 278 277 277 276 276 276 275 275 277 280 281 282 284 285 285 285 285
263 264 266 268 269 269 269 270 271 272 274 275 276 277 278 278 278 277 277 278 278 278 278 278 278 277 277 277 277 278 280 281 282 284 286 286 286 286
263 264 266 268 268 268 269 271 272 273 275 275 276 277 278 278 278 278 277 278 278 278 278 279 280 279 279 279 280 281 281 282 283 285 286 286 287 287
263 263 264 266 267 268 270 271 272 273 275 275 276 277 277 277 278 279 279 278 278 279 278 279 281 282 281 281 282 282 282 283 284 285 286 287 287 287
262 263 264 265 267 268 270 272 273 274 275 276 276 276 276 276 277 278 279 279 279 280 280 280 282 283 282 282 282 283 283 283 284 285 286 287 287 287
261 263 264 266 268 269 271 273 274 275 275 276 276 276 276 277 278 278 278 279 280 280 281 282 283 283 284 284 284 285 285 284 286 287 287 287 286 287
262 264 265 267 268 269 271 272 274 274 274 275 276 277 278 279 279 279 279 280 281 281 282 283 284 284 284 283 284 285 286 286 287 288 287 287 287 287
263 264 265 267 268 269 270 271 273 273 273 274 276 277 279 279 280 280 280 281 282 283 282 283 284 284 283 283 284 285 286 287 288 289 289 288 287 287
264 266 267 268 268 269 270 271 271 272 273 275 276 277 279 280 280 281 281 282 282 283 283 283 283 284 284 284 285 286 288 289 290 290 289 289 288 287
266 267 268 268 269 269 270 270 271 272 273 274 276 278 279 280 280 281 281 282 283 283 284 285 285 284 284 284 285 287 288 289 290 290 290 290 290 289
267 268 269 269 270 270 270 270 270 271 272 274 275 277 278 278 279 279 280 282 282 283 284 285 285 285 284 285 286 287 288 289 290 290 291 291 291 291
Height
5722 5723 5723 5723 5724 5724 5724 5725 5726 5726 5727 5726 5725 5724 5723 5723 5722 5722 5721 5720 5720 5719 5719 5718 5718 5717 5716 5716 5716 5715 5715 5715 5714 5713 5712 5711 5710 5709
5711 5712 5713 5713 5713 5713 5713 5714 5714 5715 5715 5715 5714 5713 5712 5712 5711 5711 5710 5709 5708 5707 5707 5706 5706 5705 5704 5703 5703 5702 5702 5701 5700 5699 5698 5697 5696 5694
5700 5701 5702 5702 5702 5702 5702 5702 5703 5703 5703 5704 5703 5702 5701 5700 5699 5698 5698 5697 5696 5695 5694 5693 5692 5692 5691 5690 5689 5689 5688 5687 5686 5685 5683 5682 5681 5680
5689 5690 5691 5691 5692 5692 5692 5691 5691 5691 5691 5692 5691 5690 5690 5689 5687 5686 5685 5684 5683 5682 5681 5680 5679 5678 5677 5676 5676 5675 5674 5673 5672 5671 5670 5669 5666 5664
5678 5679 5680 5680 5681 5681 5681 5680 5680 5680 5679 5679 5679 5678 5677 5676 5675 5674 5673 5672 5671 5670 5668 5667 5666 5665 5664 5663 5661 5661 5660 5660 5658 5657 5655 5653 5651 5650
5667 5668 5669 5669 5669 5669 5669 5669 5669 5668 5668 5667 5666 5666 5664 5663 5662 5661 5660 5659 5658 5656 5655 5654 5652 5651 5650 5649 5648 5648 5647 5646 5644 5642 5641 5639 5637 5635
5656 5657 5657 5658 5658 5658 5658 5658 5657 5656 5656 5655 5654 5653 5652 5651 5650 5648 5647 5646 5645 5643 5641 5640 5639 5638 5637 5636 5635 5634 5633 5632 5630 5628 5626 5624 5622 5619
5644 5645 5646 5646 5647 5646 5646 5646 5645 5645 5644 5643 5642 5640 5639 5638 5636 5635 5633 5632 5632 5631 5628 5627 5625 5624 5623 5622 5621 5620 5619 5617 5616 5614 5611 5609 5606 5604
5633 5633 5634 5634 5635 5635 5635 5634 5633 5632 5632 5631 5629 5628 5626 5625 5623 5622 5620 5619 5618 5617 5615 5615 5613 5611 5610 5608 5607 5606 5604 5603 5601 5599 5597 5594 5591 5588
5621 5622 5622 5623 5623 5623 5623 5622 5621 5620 5619 5618 5617 5615 5613 5611 5610 5609 5607 5606 5605 5604 5602 5601 5600 5598 5596 5594 5593 5591 5590 5588 5586 5584 5582 5579 5576 5573
5609 5610 5610 5611 5611 5611 5611 5610 5610 5608 5606 5605 5604 5602 5600 5599 5597 5596 5595 5593 5592 5591 5588 5587 5587 5584 5583 5581 5579 5577 5576 5574 5572 5570 5567 5564 5561 5558
5597 5598 5598 5599 5598 5598 5598 5598 5597 5596 5595 5593 5592 5590 5588 5587 5585 5584 5582 5580 5579 5578 5576 5574 5572 5570 5570 5569 5566 5564 5562 5560 5558 5555 5552 5549 5546 5544
5585 5586 5586 5586 5586 5586 5585 5585 5585 5584 5583 5581 5580 5578 5577 5574 5573 5571 5569 5567 5566 5564 5562 5560 5559 5557 5555 5555 5553 5551 5548 5546 5544 5541 5538 5535 5532 5529
5573 5574 5574 5574 5574 5574 5574 5573 5573 5572 5570 5569 5568 5566 5565 5562 5560 5558 5556 5554 5553 5551 5549 5547 5546 5544 5543 5541 5540 5539 5536 5533 5531 5528 5525 5522 5518 5515
5560 5561 5562 5562 5562 5562 5561 5561 5560 5559 5558 5557 5556 5554 5552 5550 5548 5546 5543 5542 5540 5538 5536 5535 5533 5531 5529 5528 5527 5525 5523 5521 5517 5515 5512 5509 5505 5502
5548 5548 5549 5549 5549 5549 5549 5549 5548 5547 5546 5544 5543 5541 5539 5537 5536 5534 5531 5529 5528 5526 5524 5522 5521 5519 5517 5515 5513 5512 5509 5507 5505 5501 5499 5496 5492 5488
5534 5535 5536 5537 5537 5537 5537 5536 5535 5534 5533 5532 5530 5529 5527 5526 5524 5522 5520 5518 5516 5514 5512 5510 5508 5506 5504 5502 5500 5498 5496 5493 5490 5487 5485 5483 5479 5475
5521 5522 5523 5524 5525 5525 5524 5524 5523 5522 5521 5519 5518 5516 5515 5514 5512 5510 5508 5506 5504 5502 5500 5498 5496 5494 5492 5490 5488 5485 5483 5480 5477 5474 5471 5469 5467 5463
5508 5509 5511 5511 5512 5512 5512 5511 5510 5509 5508 5507 5506 5505 5503 5501 5500 5498 5496 5494 5492 5490 5488 5486 5483 5481 5480 5478 5476 5472 5470 5467 5465 5462 5458 5456 5454 5451
5496 5497 5498 5499 5499 5499 5499 5499 5498 5497 5496 5495 5494 5493 5491 5489 5488 5486 5484 5482 5480 5478 5476 5474 5471 5469 5467 5466 5464 5461 5457 5455 5452 5450 5446 5443 5440 5438
5483 5484 5485 5486 5486 5486 5486 5485 5485 5484 5484 5483 5482 5480 5479 5477 5475 5474 5472 5470 5468 5466 5464 5462 5459 5457 5455 5453 5451 5450 5446 5442 5439 5437 5434 5431 5429 5426
5471 5472 5472 5472 5473 5473 5473 5473 5472 5472 5471 5470 5469 5468 5467 5465 5463 5461 5460 5458 5456 5454 5452 5449 5447 5444 5443 5441 5440 5438 5435 5432 5428 5425 5422 5419 5416 5415
5460 5460 5460 5460 5460 5460 5460 5460 5459 5459 5459 5458 5457 5456 5455 5453 5451 5450 5448 5446 5444 5442 5440 5438 5435 5433 5431 5429 5428 5426 5424 5421 5418 5415 5412 5408 5406 5403